Find Kosmos-1695

NORAD ID: 16139 Int'l Des: 1985-094 Owner: GUKOS Country: SU operational
LEOCIRCULARPOLAR

Current View

Loading 3D Globe...

About Kosmos-1695

Description loading...

Upcoming Passes

Passes for default location (London). Set your location on the main map for personalized predictions.

Altitude History

Loading altitude history...

Two-Line Element Set

1 16139U 85094B 26146.52782564 .00000025 00000-0 81398-4 0 9994
2 16139 82.6104 303.6777 0000859 120.7052 305.5919 12.62475425872507
Epoch: May 26, 2026 • Age: 7 hours

Current Status

Altitude 1414.9 km
Velocity 7.15 km/s
Sub-Earth Point 10.77°N, 120.74°E
Launch Date Oct 9, 1985
Age 40.6 years
Type other

Technical Details

Classification Payload
Mass 225.00 kg
Dry Mass 225.00 kg
Total Mass 225.00 kg
Length 1.60 m
Diameter 0.80 m
Span 7.00 m
Shape Cyl + Ant
Manufacturer NPOPM
Bus Type Strela-3
Phase Status In Orbit
Owner/State GUKOS/SU

Most Searched